| time (UTC) | temp C | wind direction | speed KPH | gust KPH | rain 1hr cm | rain 24hr cm | rain mn cm | humidity % | barometer mb |
| 20260831220331 | 28 | 232 | 4.8 | 9.7 | 0.00 | 0.00 | 0.00 | 41 | 1014.1 |
| 20260831215826 | 29 | 247 | 6.4 | 12.9 | 0.00 | 0.00 | 0.00 | 39 | 1014.4 |
| 20260831215322 | 29 | 265 | 4.8 | 6.4 | 0.00 | 0.00 | 0.00 | 40 | 1014.3 |
| 20260831214818 | 29 | 255 | 6.4 | 9.7 | 0.00 | 0.00 | 0.00 | 41 | 1014.2 |
| 20260831214316 | 29 | 253 | 4.8 | 6.4 | 0.00 | 0.00 | 0.00 | 41 | 1014.2 |
| 20260831213811 | 29 | 260 | 4.8 | 12.9 | 0.00 | 0.00 | 0.00 | 41 | 1014.4 |
| 20260831213307 | 28 | 269 | 6.4 | 9.7 | 0.00 | 0.00 | 0.00 | 41 | 1014.4 |
| 20260831212802 | 29 | 213 | 3.2 | 6.4 | 0.00 | 0.00 | 0.00 | 38 | 1014.2 |
| 20260831212259 | 30 | 213 | 9.7 | 12.9 | 0.00 | 0.00 | 0.00 | 38 | 1014.2 |
| 20260831211757 | 29 | 243 | 4.8 | 11.3 | 0.00 | 0.00 | 0.00 | 42 | 1014.3 |
| 20260831211252 | 29 | 227 | 8.0 | 11.3 | 0.00 | 0.00 | 0.00 | 42 | 1014.2 |
| 20260831210747 | 29 | 135 | 6.4 | 9.7 | 0.00 | 0.00 | 0.00 | 42 | 1014.3 |
| 20260831210243 | 30 | 226 | 6.4 | 6.4 | 0.00 | 0.00 | 0.00 | 42 | 1014.3 |
| 20260831205742 | 30 | 308 | 3.2 | 4.8 | 0.00 | 0.00 | 0.00 | 42 | 1014.3 |
| 20260831205238 | 30 | 262 | 4.8 | 12.9 | 0.00 | 0.00 | 0.00 | 40 | 1014.1 |
| 20260831204738 | 29 | 261 | 9.7 | 12.9 | 0.00 | 0.00 | 0.00 | 40 | 1014.2 |
| 20260831204237 | 29 | 216 | 4.8 | 9.7 | 0.00 | 0.00 | 0.00 | 39 | 1014.3 |
| 20260831203736 | 30 | 251 | 8.0 | 11.3 | 0.00 | 0.00 | 0.00 | 40 | 1014.2 |
| 20260831203231 | 29 | 214 | 6.4 | 11.3 | 0.00 | 0.00 | 0.00 | 41 | 1014.3 |
| 20260831202729 | 29 | 296 | 9.7 | 12.9 | 0.00 | 0.00 | 0.00 | 38 | 1014.4 |
| 20260831202225 | 29 | 350 | 4.8 | 9.7 | 0.00 | 0.00 | 0.00 | 38 | 1014.3 |
| 20260831201724 | 29 | 260 | 8.0 | 20.9 | 0.00 | 0.00 | 0.00 | 36 | 1014.3 |
| 20260831201219 | 29 | 275 | 4.8 | 9.7 | 0.00 | 0.00 | 0.00 | 39 | 1014.2 |
| 20260831200714 | 30 | 248 | 4.8 | 11.3 | 0.00 | 0.00 | 0.00 | 40 | 1014.2 |
| 20260831200209 | 30 | 317 | 4.8 | 9.7 | 0.00 | 0.00 | 0.00 | 40 | 1014.1 |
| 20260831195704 | 29 | 273 | 6.4 | 12.9 | 0.00 | 0.00 | 0.00 | 38 | 1014.2 |
| 20260831195159 | 29 | 276 | 6.4 | 9.7 | 0.00 | 0.00 | 0.00 | 39 | 1014.3 |
| 20260831194654 | 29 | 290 | 8.0 | 9.7 | 0.00 | 0.00 | 0.00 | 40 | 1014.3 |
| 20260831194149 | 28 | 317 | 4.8 | 16.1 | 0.00 | 0.00 | 0.00 | 40 | 1014.2 |
| 20260831193643 | 30 | 218 | 4.8 | 6.4 | 0.00 | 0.00 | 0.00 | 40 | 1014.4 |
| 20260831193139 | 28 | 208 | 6.4 | 11.3 | 0.00 | 0.00 | 0.00 | 43 | 1014.2 |
| 20260831192633 | 28 | 322 | 6.4 | 9.7 | 0.00 | 0.00 | 0.00 | 42 | 1014.1 |
| 20260831192129 | 28 | 114 | 1.6 | 6.4 | 0.00 | 0.00 | 0.00 | 42 | 1014.0 |
| 20260831191625 | 29 | 23 | 3.2 | 4.8 | 0.00 | 0.00 | 0.00 | 40 | 1014.0 |
| 20260831191120 | 28 | 210 | 4.8 | 6.4 | 0.00 | 0.00 | 0.00 | 39 | 1014.0 |
| 20260831190615 | 28 | 299 | 4.8 | 9.7 | 0.00 | 0.00 | 0.00 | 42 | 1013.9 |
| 20260831190114 | 28 | 284 | 4.8 | 11.3 | 0.00 | 0.00 | 0.00 | 45 | 1013.9 |
| 20260831185610 | 28 | 245 | 8.0 | 12.9 | 0.00 | 0.00 | 0.00 | 43 | 1014.1 |
| 20260831185106 | 27 | 311 | 4.8 | 11.3 | 0.00 | 0.00 | 0.00 | 47 | 1014.1 |
| 20260831184600 | 27 | 238 | 3.2 | 9.7 | 0.00 | 0.00 | 0.00 | 45 | 1014.1 |
| 20260831184055 | 27 | 273 | 3.2 | 11.3 | 0.00 | 0.00 | 0.00 | 45 | 1014.0 |
| 20260831183554 | 27 | 310 | 6.4 | 9.7 | 0.00 | 0.00 | 0.00 | 45 | 1014.1 |
| 20260831183048 | 27 | 7 | 6.4 | 12.9 | 0.00 | 0.00 | 0.00 | 42 | 1014.2 |
| 20260831182542 | 27 | 309 | 4.8 | 12.9 | 0.00 | 0.00 | 0.00 | 48 | 1014.3 |
| 20260831182038 | 27 | 318 | 6.4 | 9.7 | 0.00 | 0.00 | 0.00 | 45 | 1014.1 |
| 20260831181533 | 27 | 273 | 9.7 | 14.5 | 0.00 | 0.00 | 0.00 | 44 | 1014.2 |
| 20260831181032 | 27 | 221 | 3.2 | 11.3 | 0.00 | 0.00 | 0.00 | 45 | 1014.2 |
| 20260831180527 | 27 | 342 | 4.8 | 12.9 | 0.00 | 0.00 | 0.00 | 47 | 1014.3 |
| 20260831180022 | 26 | 12 | 4.8 | 11.3 | 0.00 | 0.00 | 0.00 | 48 | 1014.2 |
| 20260831175517 | 27 | 335 | 6.4 | 11.3 | 0.00 | 0.00 | 0.00 | 48 | 1014.2 |
| 20260831175014 | 27 | 330 | 4.8 | 12.9 | 0.00 | 0.00 | 0.00 | 49 | 1014.3 |
| 20260831174508 | 26 | 306 | 11.3 | 12.9 | 0.00 | 0.00 | 0.00 | 48 | 1014.4 |
| 20260831174003 | 26 | 14 | 3.2 | 9.7 | 0.00 | 0.00 | 0.00 | 52 | 1014.4 |
| 20260831173501 | 26 | 331 | 3.2 | 12.9 | 0.00 | 0.00 | 0.00 | 53 | 1014.4 |
| 20260831172957 | 25 | 315 | 8.0 | 12.9 | 0.00 | 0.00 | 0.00 | 54 | 1014.2 |
| 20260831172453 | 26 | 279 | 8.0 | 12.9 | 0.00 | 0.00 | 0.00 | 52 | 1014.3 |
| 20260831171948 | 26 | 335 | 3.2 | 9.7 | 0.00 | 0.00 | 0.00 | 54 | 1014.2 |
| 20260831171443 | 26 | 324 | 4.8 | 12.9 | 0.00 | 0.00 | 0.00 | 52 | 1014.5 |
| 20260831170940 | 26 | 292 | 3.2 | 9.7 | 0.00 | 0.00 | 0.00 | 56 | 1014.5 |
| 20260831170436 | 25 | 269 | 8.0 | 11.3 | 0.00 | 0.00 | 0.00 | 53 | 1014.2 |
| 20260831165932 | 26 | 314 | 6.4 | 9.7 | 0.00 | 0.00 | 0.00 | 55 | 1014.3 |
| 20260831165428 | 25 | 346 | 4.8 | 12.9 | 0.00 | 0.00 | 0.00 | 56 | 1014.2 |
| 20260831164924 | 25 | 296 | 6.4 | 9.7 | 0.00 | 0.00 | 0.00 | 57 | 1014.4 |
| 20260831164420 | 25 | 16 | 6.4 | 9.7 | 0.00 | 0.00 | 0.00 | 62 | 1014.3 |
| 20260831163915 | 25 | 349 | 9.7 | 14.5 | 0.00 | 0.00 | 0.00 | 60 | 1014.2 |
| 20260831163411 | 25 | 290 | 4.8 | 12.9 | 0.00 | 0.00 | 0.00 | 62 | 1014.2 |
| 20260831162909 | 25 | 334 | 9.7 | 12.9 | 0.00 | 0.00 | 0.00 | 61 | 1014.2 |
| 20260831162405 | 25 | 283 | 8.0 | 11.3 | 0.00 | 0.00 | 0.00 | 64 | 1014.3 |
| 20260831161903 | 25 | 354 | 6.4 | 9.7 | 0.00 | 0.00 | 0.00 | 67 | 1014.2 |
| 20260831161400 | 25 | 289 | 4.8 | 11.3 | 0.00 | 0.00 | 0.00 | 65 | 1014.5 |
| 20260831160855 | 24 | 352 | 4.8 | 11.3 | 0.00 | 0.00 | 0.00 | 68 | 1014.5 |
| 20260831160349 | 25 | 48 | 4.8 | 9.7 | 0.00 | 0.00 | 0.00 | 66 | 1014.5 |
| 20260831155844 | 23 | 303 | 6.4 | 9.7 | 0.00 | 0.00 | 0.00 | 70 | 1014.4 |
| 20260831155338 | 23 | 293 | 8.0 | 16.1 | 0.00 | 0.00 | 0.00 | 70 | 1014.5 |
| 20260831154834 | 23 | 263 | 6.4 | 9.7 | 0.00 | 0.00 | 0.00 | 74 | 1014.5 |
| 20260831154331 | 23 | 240 | 1.6 | 4.8 | 0.00 | 0.00 | 0.00 | 75 | 1014.5 |
| 20260831153829 | 22 | 265 | 6.4 | 6.4 | 0.00 | 0.00 | 0.00 | 77 | 1014.4 |
| 20260831153325 | 22 | 309 | 4.8 | 9.7 | 0.00 | 0.00 | 0.00 | 80 | 1014.3 |
| 20260831152821 | 22 | 280 | 8.0 | 12.9 | 0.00 | 0.00 | 0.00 | 80 | 1014.1 |
| 20260831152317 | 22 | 287 | 3.2 | 11.3 | 0.00 | 0.00 | 0.00 | 82 | 1014.2 |
| 20260831151812 | 22 | 317 | 6.4 | 6.4 | 0.00 | 0.00 | 0.00 | 81 | 1014.1 |
| 20260831151311 | 21 | 330 | 3.2 | 4.8 | 0.00 | 0.00 | 0.00 | 84 | 1014.2 |
| 20260831150806 | 21 | 338 | 4.8 | 9.7 | 0.00 | 0.00 | 0.00 | 84 | 1013.9 |
| 20260831150301 | 21 | 268 | 4.8 | 9.7 | 0.00 | 0.00 | 0.00 | 85 | 1013.7 |
| 20260831145800 | 21 | 342 | 4.8 | 6.4 | 0.00 | 0.00 | 0.00 | 84 | 1013.7 |
| 20260831145257 | 21 | 305 | 9.7 | 12.9 | 0.00 | 0.00 | 0.00 | 84 | 1013.9 |
| 20260831144752 | 21 | 334 | 3.2 | 12.9 | 0.00 | 0.00 | 0.00 | 86 | 1013.7 |
| 20260831144249 | 21 | 329 | 4.8 | 6.4 | 0.00 | 0.00 | 0.00 | 86 | 1013.7 |
| 20260831143748 | 21 | 228 | 3.2 | 9.7 | 0.00 | 0.00 | 0.00 | 89 | 1013.7 |
| 20260831143243 | 20 | 263 | 8.0 | 11.3 | 0.00 | 0.00 | 0.00 | 89 | 1013.5 |
| 20260831142739 | 20 | 317 | 4.8 | 6.4 | 0.00 | 0.00 | 0.00 | 90 | 1013.6 |
| 20260831142234 | 20 | 351 | 8.0 | 12.9 | 0.00 | 0.00 | 0.00 | 91 | 1013.9 |
| 20260831141733 | 20 | 258 | 6.4 | 11.3 | 0.00 | 0.00 | 0.00 | 90 | 1013.7 |
| 20260831141228 | 20 | 294 | 9.7 | 14.5 | 0.00 | 0.00 | 0.00 | 90 | 1013.5 |
| 20260831140728 | 20 | 55 | 3.2 | 9.7 | 0.00 | 0.00 | 0.00 | 90 | 1013.4 |
| 20260831140222 | 20 | 340 | 6.4 | 9.7 | 0.00 | 0.00 | 0.00 | 90 | 1013.4 |
| 20260831135720 | 20 | 275 | 3.2 | 9.7 | 0.00 | 0.00 | 0.00 | 92 | 1013.2 |
| 20260831135216 | 20 | 44 | 3.2 | 11.3 | 0.00 | 0.00 | 0.00 | 93 | 1013.1 |
| 20260831134712 | 20 | 50 | 3.2 | 11.3 | 0.00 | 0.00 | 0.00 | 93 | 1013.2 |
| 20260831134208 | 20 | 268 | 4.8 | 9.7 | 0.00 | 0.00 | 0.00 | 93 | 1013.2 |
| 20260831133706 | 19 | 278 | 9.7 | 14.5 | 0.00 | 0.00 | 0.00 | 94 | 1013.1 |
| 20260831133201 | 19 | 287 | 9.7 | 16.1 | 0.00 | 0.00 | 0.00 | 95 | 1013.1 |
| 20260831132657 | 19 | 338 | 6.4 | 16.1 | 0.00 | 0.00 | 0.00 | 96 | 1013.0 |
| 20260831132156 | 19 | 9 | 8.0 | 12.9 | 0.00 | 0.00 | 0.00 | 95 | 1013.1 |
| 20260831131651 | 19 | 287 | 4.8 | 12.9 | 0.00 | 0.00 | 0.00 | 95 | 1013.0 |
| 20260831131148 | 20 | 14 | 8.0 | 11.3 | 0.00 | 0.00 | 0.00 | 95 | 1013.0 |
| 20260831130642 | 19 | 332 | 4.8 | 14.5 | 0.00 | 0.00 | 0.00 | 96 | 1012.6 |
| 20260831130138 | 19 | 348 | 3.2 | 12.9 | 0.00 | 0.00 | 0.00 | 97 | 1012.9 |
| 20260831125636 | 19 | 297 | 3.2 | 6.4 | 0.00 | 0.00 | 0.00 | 97 | 1012.7 |
| 20260831125132 | 19 | 298 | 6.4 | 20.9 | 0.00 | 0.00 | 0.00 | 96 | 1012.5 |
| 20260831124628 | 20 | 281 | 9.7 | 12.9 | 0.00 | 0.00 | 0.00 | 96 | 1012.2 |
| 20260831124124 | 20 | 286 | 4.8 | 6.4 | 0.00 | 0.00 | 0.00 | 97 | 1012.1 |
| 20260831123623 | 20 | 315 | 6.4 | 6.4 | 0.00 | 0.00 | 0.00 | 99 | 1012.0 |
| 20260831123122 | 20 | 290 | 6.4 | 6.4 | 0.00 | 0.00 | 0.00 | 99 | 1011.5 |
| 20260831122622 | 20 | 282 | 3.2 | 9.7 | 0.00 | 0.00 | 0.00 | 99 | 1011.6 |
| 20260831122118 | 20 | 263 | 3.2 | 4.8 | 0.00 | 0.00 | 0.00 | 99 | 1011.7 |
| 20260831121617 | 20 | 297 | 4.8 | 9.7 | 0.00 | 0.00 | 0.00 | 99 | 1011.7 |
| 20260831121114 | 20 | 307 | 4.8 | 11.3 | 0.00 | 0.00 | 0.00 | 99 | 1011.6 |
| 20260831120609 | 20 | 242 | 4.8 | 6.4 | 0.00 | 0.00 | 0.00 | 99 | 1011.6 |
| 20260831120104 | 20 | 281 | 6.4 | 12.9 | 0.00 | 0.00 | 0.00 | 99 | 1011.6 |
| 20260831115600 | 20 | 266 | 3.2 | 9.7 | 0.00 | 0.00 | 0.00 | 99 | 1011.3 |
| 20260831115055 | 20 | 244 | 4.8 | 9.7 | 0.00 | 0.00 | 0.00 | 99 | 1011.2 |
| 20260831114554 | 20 | 287 | 3.2 | 11.3 | 0.00 | 0.00 | 0.00 | 99 | 1010.9 |
| 20260831114049 | 20 | 263 | 3.2 | 9.7 | 0.00 | 0.00 | 0.00 | 99 | 1010.8 |
| 20260831113548 | 20 | 229 | 6.4 | 12.9 | 0.00 | 0.00 | 0.00 | 99 | 1010.8 |
| 20260831113045 | 20 | 329 | 4.8 | 11.3 | 0.00 | 0.00 | 0.00 | 99 | 1010.7 |
| 20260831112543 | 21 | 242 | 4.8 | 12.9 | 0.00 | 0.00 | 0.00 | 99 | 1010.5 |
| 20260831112039 | 21 | 293 | 9.7 | 11.3 | 0.00 | 0.00 | 0.00 | 99 | 1010.5 |
| 20260831111535 | 21 | 295 | 4.8 | 14.5 | 0.00 | 0.00 | 0.00 | 99 | 1010.5 |
| 20260831111030 | 21 | 255 | 6.4 | 11.3 | 0.00 | 0.00 | 0.00 | 99 | 1010.4 |
| 20260831110525 | 21 | 296 | 4.8 | 14.5 | 0.00 | 0.00 | 0.00 | 99 | 1010.3 |
| 20260831110020 | 21 | 253 | 8.0 | 14.5 | 0.00 | 0.00 | 0.00 | 99 | 1010.3 |
| 20260831105514 | 21 | 281 | 12.9 | 17.7 | 0.00 | 0.00 | 0.00 | 99 | 1010.2 |
| 20260831105009 | 21 | 262 | 12.9 | 25.7 | 0.00 | 0.00 | 0.00 | 99 | 1010.2 |
| 20260831104505 | 21 | 295 | 9.7 | 14.5 | 0.00 | 0.00 | 0.00 | 99 | 1010.0 |
| 20260831104001 | 22 | 247 | 6.4 | 11.3 | 0.00 | 0.00 | 0.00 | 99 | 1010.0 |
| 20260831103500 | 22 | 263 | 4.8 | 9.7 | 0.00 | 0.00 | 0.00 | 99 | 1009.9 |
| 20260831102956 | 22 | 273 | 6.4 | 9.7 | 0.00 | 0.00 | 0.00 | 99 | 1009.9 |
| 20260831102451 | 22 | 286 | 6.4 | 11.3 | 0.00 | 0.00 | 0.00 | 99 | 1009.7 |
| 20260831101946 | 22 | 272 | 8.0 | 11.3 | 0.00 | 0.00 | 0.00 | 99 | 1010.0 |
| 20260831101441 | 22 | 286 | 6.4 | 9.7 | 0.00 | 0.00 | 0.00 | 99 | 1009.7 |
| 20260831100937 | 22 | 247 | 4.8 | 6.4 | 0.00 | 0.00 | 0.00 | 99 | 1009.6 |
| 20260831100433 | 22 | 261 | 6.4 | 11.3 | 0.00 | 0.00 | 0.00 | 99 | 1009.6 |
| 20260831095928 | 22 | 254 | 6.4 | 6.4 | 0.00 | 0.00 | 0.00 | 99 | 1009.7 |
| 20260831095427 | 22 | 270 | 4.8 | 4.8 | 0.00 | 0.00 | 0.00 | 99 | 1009.6 |
| 20260831094922 | 22 | 284 | 3.2 | 4.8 | 0.00 | 0.00 | 0.00 | 99 | 1009.6 |
| 20260831094418 | 22 | 244 | 3.2 | 6.4 | 0.00 | 0.00 | 0.00 | 99 | 1009.6 |
| 20260831093914 | 22 | 253 | 3.2 | 9.7 | 0.00 | 0.00 | 0.00 | 99 | 1009.6 |
| 20260831093409 | 22 | 280 | 6.4 | 6.4 | 0.00 | 0.00 | 0.00 | 99 | 1009.5 |
| 20260831092906 | 22 | 255 | 4.8 | 9.7 | 0.00 | 0.00 | 0.00 | 99 | 1009.5 |
| 20260831092401 | 22 | 257 | 3.2 | 6.4 | 0.00 | 0.00 | 0.00 | 99 | 1009.4 |
| 20260831091855 | 22 | 264 | 3.2 | 4.8 | 0.00 | 0.00 | 0.00 | 99 | 1009.6 |
| 20260831091350 | 22 | 242 | 3.2 | 6.4 | 0.00 | 0.00 | 0.00 | 99 | 1009.1 |
| 20260831090845 | 23 | 259 | 4.8 | 6.4 | 0.00 | 0.00 | 0.00 | 99 | 1009.4 |
| 20260831090336 | 23 | 288 | 3.2 | 9.7 | 0.00 | 0.00 | 0.00 | 99 | 1009.2 |
| 20260831085832 | 23 | 274 | 3.2 | 11.3 | 0.00 | 0.00 | 0.00 | 99 | 1009.2 |
| 20260831085326 | 23 | 295 | 6.4 | 12.9 | 0.00 | 0.00 | 0.00 | 99 | 1009.1 |
| 20260831084821 | 23 | 287 | 11.3 | 16.1 | 0.00 | 0.00 | 0.00 | 99 | 1009.1 |
| 20260831084317 | 22 | 220 | 1.6 | 6.4 | 0.00 | 0.00 | 0.00 | 99 | 1009.1 |
| 20260831083813 | 22 | 232 | 1.6 | 6.4 | 0.00 | 0.00 | 0.00 | 99 | 1009.1 |
| 20260831083308 | 22 | 265 | 4.8 | 4.8 | 0.00 | 0.00 | 0.00 | 99 | 1009.2 |
| 20260831082807 | 22 | 281 | 3.2 | 3.2 | 0.00 | 0.00 | 0.00 | 99 | 1008.9 |
| 20260831082306 | 22 | 263 | 1.6 | 1.6 | 0.00 | 0.00 | 0.00 | 99 | 1009.1 |
| 20260831081758 | 22 | 260 | 0.0 | 0.0 | 0.00 | 0.00 | 0.00 | 99 | 1008.8 |
| 20260831081248 | 22 | 246 | 3.2 | 4.8 | 0.00 | 0.00 | 0.00 | 99 | 1009.0 |
| 20260831080743 | 22 | 216 | 6.4 | 6.4 | 0.00 | 0.00 | 0.00 | 99 | 1009.0 |
| 20260831080237 | 22 | 240 | 1.6 | 3.2 | 0.00 | 0.00 | 0.00 | 99 | 1009.0 |
| 20260831075733 | 22 | 238 | 1.6 | 3.2 | 0.00 | 0.00 | 0.00 | 99 | 1009.2 |
| 20260831075229 | 21 | 237 | 0.0 | 4.8 | 0.00 | 0.00 | 0.00 | 99 | 1009.1 |
| 20260831074728 | 21 | 245 | 0.0 | 0.0 | 0.00 | 0.00 | 0.00 | 99 | 1008.9 |
| 20260831074222 | 21 | 214 | 0.0 | 1.6 | 0.00 | 0.00 | 0.00 | 99 | 1008.8 |
| 20260831073718 | 21 | 218 | 0.0 | 1.6 | 0.00 | 0.00 | 0.00 | 99 | 1008.7 |
| 20260831073216 | 21 | 238 | 0.0 | 1.6 | 0.00 | 0.00 | 0.00 | 99 | 1008.7 |
| 20260831072712 | 21 | 162 | 0.0 | 3.2 | 0.00 | 0.00 | 0.00 | 99 | 1008.4 |
| 20260831072208 | 21 | 196 | 0.0 | 0.0 | 0.00 | 0.00 | 0.00 | 99 | 1008.4 |
| 20260831071708 | 21 | 219 | 0.0 | 0.0 | 0.00 | 0.00 | 0.00 | 99 | 1008.5 |
| 20260831071202 | 21 | 223 | 0.0 | 0.0 | 0.00 | 0.00 | 0.00 | 99 | 1008.5 |
| 20260831070656 | 20 | 215 | 0.0 | 0.0 | 0.00 | 0.00 | 0.00 | 99 | 1008.3 |
| 20260831070150 | 20 | 216 | 0.0 | 0.0 | 0.00 | 0.00 | 0.00 | 99 | 1008.4 |
| 20260831065650 | 20 | 192 | 0.0 | 0.0 | 0.00 | 0.00 | 0.00 | 99 | 1008.4 |
| 20260831065148 | 21 | 192 | 0.0 | 0.0 | 0.00 | 0.00 | 0.00 | 99 | 1008.5 |
| 20260831064643 | 21 | 141 | 0.0 | 0.0 | 0.00 | 0.00 | 0.00 | 99 | 1008.3 |
| 20260831064134 | 21 | 213 | 0.0 | 0.0 | 0.00 | 0.00 | 0.00 | 99 | 1008.4 |
| 20260831063630 | 21 | 115 | 0.0 | 0.0 | 0.00 | 0.00 | 0.00 | 99 | 1008.3 |
| 20260831063124 | 21 | 150 | 0.0 | 0.0 | 0.00 | 0.00 | 0.00 | 99 | 1008.2 |
| 20260831062618 | 21 | 210 | 0.0 | 0.0 | 0.00 | 0.00 | 0.00 | 99 | 1008.4 |
| 20260831062112 | 21 | 103 | 0.0 | 1.6 | 0.00 | 0.00 | 0.00 | 99 | 1008.3 |
| 20260831061610 | 21 | 137 | 0.0 | 0.0 | 0.00 | 0.00 | 0.00 | 99 | 1008.5 |
| 20260831061106 | 21 | 125 | 1.6 | 3.2 | 0.00 | 0.00 | 0.00 | 99 | 1008.3 |
| 20260831060602 | 21 | 84 | 0.0 | 1.6 | 0.00 | 0.00 | 0.00 | 99 | 1008.3 |
| 20260831060056 | 21 | 87 | 0.0 | 0.0 | 0.00 | 0.00 | 0.00 | 99 | 1008.3 |
| 20260831055551 | 22 | 109 | 1.6 | 1.6 | 0.00 | 0.00 | 0.00 | 99 | 1008.3 |
| 20260831055047 | 22 | 137 | 0.0 | 1.6 | 0.00 | 0.00 | 0.00 | 99 | 1008.4 |
| 20260831054546 | 22 | 96 | 1.6 | 3.2 | 0.00 | 0.00 | 0.00 | 99 | 1008.2 |
| 20260831054045 | 22 | 84 | 3.2 | 4.8 | 0.00 | 0.00 | 0.00 | 99 | 1008.4 |
| 20260831053544 | 22 | 140 | 0.0 | 1.6 | 0.00 | 0.00 | 0.00 | 99 | 1008.4 |
| 20260831053039 | 22 | 123 | 1.6 | 3.2 | 0.00 | 0.00 | 0.00 | 99 | 1008.6 |
| 20260831052538 | 22 | 102 | 3.2 | 4.8 | 0.00 | 0.00 | 0.00 | 99 | 1008.5 |
| 20260831052037 | 22 | 80 | 1.6 | 4.8 | 0.00 | 0.00 | 0.00 | 99 | 1008.5 |
| 20260831051535 | 22 | 76 | 4.8 | 4.8 | 0.00 | 0.00 | 0.00 | 99 | 1008.1 |
| 20260831051030 | 22 | 37 | 3.2 | 6.4 | 0.00 | 0.00 | 0.00 | 98 | 1008.3 |
| 20260831050529 | 22 | 99 | 1.6 | 3.2 | 0.00 | 0.00 | 0.00 | 98 | 1008.2 |
| 20260831050028 | 22 | 115 | 1.6 | 6.4 | 0.00 | 0.00 | 0.00 | 98 | 1008.3 |
| 20260831045527 | 22 | 121 | 1.6 | 6.4 | 0.00 | 0.00 | 0.00 | 98 | 1008.2 |
| 20260831045022 | 22 | 105 | 3.2 | 9.7 | 0.00 | 0.00 | 0.00 | 98 | 1008.3 |
| 20260831044518 | 22 | 111 | 1.6 | 4.8 | 0.00 | 0.00 | 0.00 | 98 | 1008.3 |
| 20260831044013 | 22 | 100 | 1.6 | 9.7 | 0.00 | 0.00 | 0.00 | 97 | 1008.3 |
| 20260831043513 | 22 | 117 | 6.4 | 12.9 | 0.00 | 0.00 | 0.00 | 97 | 1008.4 |
| 20260831043008 | 22 | 140 | 4.8 | 6.4 | 0.00 | 0.00 | 0.00 | 97 | 1008.7 |
| 20260831042508 | 22 | 122 | 4.8 | 11.3 | 0.00 | 0.00 | 0.00 | 97 | 1008.6 |
| 20260831042003 | 22 | 161 | 4.8 | 12.9 | 0.00 | 0.00 | 0.00 | 97 | 1008.7 |
| 20260831041458 | 22 | 105 | 4.8 | 12.9 | 0.00 | 0.00 | 0.00 | 96 | 1008.9 |
| 20260831040957 | 22 | 146 | 3.2 | 9.7 | 0.00 | 0.00 | 0.00 | 96 | 1008.8 |
| 20260831040453 | 22 | 88 | 9.7 | 14.5 | 0.00 | 0.00 | 0.00 | 96 | 1009.0 |
| 20260831035950 | 22 | 180 | 1.6 | 9.7 | 0.00 | 0.00 | 0.00 | 96 | 1009.0 |
| 20260831035449 | 22 | 148 | 6.4 | 9.7 | 0.00 | 0.00 | 0.00 | 96 | 1009.0 |
| 20260831034944 | 23 | 75 | 6.4 | 6.4 | 0.00 | 0.00 | 0.00 | 96 | 1009.3 |
| 20260831034439 | 23 | 109 | 6.4 | 11.3 | 0.00 | 0.00 | 0.00 | 95 | 1009.1 |
| 20260831033934 | 23 | 104 | 6.4 | 11.3 | 0.00 | 0.00 | 0.00 | 95 | 1009.5 |
| 20260831033430 | 23 | 52 | 4.8 | 6.4 | 0.00 | 0.00 | 0.00 | 95 | 1009.4 |
| 20260831032926 | 23 | 126 | 8.0 | 14.5 | 0.00 | 0.00 | 0.00 | 95 | 1009.3 |
| 20260831032425 | 23 | 165 | 4.8 | 12.9 | 0.00 | 0.00 | 0.00 | 95 | 1009.4 |
| 20260831031920 | 23 | 98 | 8.0 | 9.7 | 0.00 | 0.00 | 0.00 | 95 | 1009.2 |
| 20260831031420 | 23 | 113 | 8.0 | 12.9 | 0.00 | 0.00 | 0.00 | 95 | 1009.3 |
| 20260831030914 | 23 | 174 | 4.8 | 9.7 | 0.00 | 0.00 | 0.00 | 95 | 1009.3 |
| 20260831030413 | 23 | 174 | 1.6 | 9.7 | 0.00 | 0.00 | 0.00 | 94 | 1009.4 |
| 20260831025912 | 23 | 146 | 3.2 | 12.9 | 0.00 | 0.00 | 0.00 | 94 | 1009.2 |
| 20260831025412 | 23 | 98 | 8.0 | 14.5 | 0.00 | 0.00 | 0.00 | 95 | 1009.2 |
| 20260831024908 | 23 | 82 | 8.0 | 12.9 | 0.00 | 0.00 | 0.00 | 95 | 1009.0 |
| 20260831024407 | 23 | 97 | 6.4 | 11.3 | 0.00 | 0.00 | 0.00 | 94 | 1009.1 |
| 20260831023907 | 23 | 56 | 11.3 | 12.9 | 0.00 | 0.00 | 0.00 | 94 | 1008.8 |
| 20260831023405 | 23 | 56 | 6.4 | 12.9 | 0.00 | 0.00 | 0.00 | 94 | 1008.8 |
| 20260831022901 | 23 | 96 | 6.4 | 16.1 | 0.00 | 0.00 | 0.00 | 94 | 1008.9 |
| 20260831022359 | 23 | 80 | 3.2 | 11.3 | 0.00 | 0.00 | 0.00 | 94 | 1008.7 |
| 20260831021854 | 23 | 73 | 9.7 | 16.1 | 0.00 | 0.00 | 0.00 | 94 | 1008.7 |
| 20260831021348 | 23 | 114 | 3.2 | 14.5 | 0.00 | 0.00 | 0.00 | 94 | 1008.7 |
| 20260831020844 | 23 | 111 | 3.2 | 9.7 | 0.00 | 0.00 | 0.00 | 94 | 1008.6 |
| 20260831020338 | 23 | 146 | 1.6 | 11.3 | 0.00 | 0.00 | 0.00 | 93 | 1008.5 |
| 20260831015834 | 23 | 85 | 4.8 | 16.1 | 0.00 | 0.00 | 0.00 | 93 | 1008.5 |
| 20260831015330 | 23 | 163 | 6.4 | 12.9 | 0.00 | 0.00 | 0.00 | 93 | 1008.4 |
| 20260831014829 | 23 | 166 | 3.2 | 9.7 | 0.00 | 0.00 | 0.00 | 93 | 1008.4 |
| 20260831014324 | 23 | 91 | 8.0 | 11.3 | 0.00 | 0.00 | 0.00 | 93 | 1008.3 |
| 20260831013820 | 23 | 103 | 11.3 | 14.5 | 0.00 | 0.00 | 0.00 | 93 | 1008.4 |
| 20260831013319 | 23 | 142 | 3.2 | 12.9 | 0.00 | 0.00 | 0.00 | 92 | 1008.5 |
| 20260831012814 | 23 | 84 | 6.4 | 11.3 | 0.00 | 0.00 | 0.00 | 92 | 1008.4 |
| 20260831012310 | 23 | 106 | 4.8 | 9.7 | 0.00 | 0.00 | 0.00 | 92 | 1008.7 |
| 20260831011803 | 23 | 82 | 11.3 | 12.9 | 0.00 | 0.00 | 0.00 | 92 | 1008.5 |
| 20260831011258 | 23 | 194 | 4.8 | 11.3 | 0.00 | 0.00 | 0.00 | 91 | 1008.7 |
| 20260831010754 | 23 | 94 | 8.0 | 14.5 | 0.00 | 0.00 | 0.00 | 91 | 1008.6 |
| 20260831010248 | 23 | 86 | 3.2 | 12.9 | 0.00 | 0.00 | 0.00 | 91 | 1008.7 |
| 20260831005744 | 24 | 151 | 4.8 | 11.3 | 0.00 | 0.00 | 0.00 | 91 | 1008.8 |
| 20260831005239 | 24 | 66 | 12.9 | 14.5 | 0.00 | 0.00 | 0.00 | 91 | 1009.0 |
| 20260831004734 | 24 | 111 | 4.8 | 9.7 | 0.00 | 0.00 | 0.00 | 90 | 1008.9 |
| 20260831004231 | 24 | 134 | 8.0 | 11.3 | 0.00 | 0.00 | 0.00 | 90 | 1008.7 |
| 20260831003726 | 24 | 64 | 3.2 | 6.4 | 0.00 | 0.00 | 0.00 | 89 | 1008.8 |
| 20260831003222 | 24 | 100 | 9.7 | 11.3 | 0.00 | 0.00 | 0.00 | 89 | 1009.0 |
| 20260831002721 | 25 | 142 | 1.6 | 9.7 | 0.00 | 0.00 | 0.00 | 89 | 1008.8 |
| 20260831002215 | 25 | 137 | 3.2 | 20.9 | 0.00 | 0.00 | 0.00 | 88 | 1008.9 |
| 20260831001713 | 25 | 102 | 3.2 | 12.9 | 0.00 | 0.00 | 0.00 | 88 | 1008.7 |
| 20260831001212 | 25 | 96 | 6.4 | 12.9 | 0.00 | 0.00 | 0.00 | 88 | 1008.8 |
| 20260831000709 | 25 | 119 | 3.2 | 12.9 | 0.00 | 0.00 | 0.00 | 88 | 1008.8 |
| 20260831000204 | 25 | 54 | 14.5 | 22.5 | 0.00 | 0.00 | 0.00 | 87 | 1008.7 |
| 20260830235703 | 25 | 161 | 6.4 | 14.5 | 0.00 | 0.00 | 0.00 | 86 | 1008.6 |
| 20260830235158 | 25 | 92 | 6.4 | 14.5 | 0.00 | 0.00 | 0.00 | 86 | 1008.9 |
| 20260830234653 | 25 | 113 | 8.0 | 14.5 | 0.00 | 0.00 | 0.00 | 86 | 1009.2 |
| 20260830234149 | 25 | 95 | 8.0 | 12.9 | 0.00 | 0.00 | 0.00 | 86 | 1009.1 |
| 20260830233644 | 25 | 177 | 4.8 | 6.4 | 0.00 | 0.00 | 0.00 | 85 | 1009.2 |
| 20260830233139 | 25 | 149 | 3.2 | 14.5 | 0.00 | 0.00 | 0.00 | 85 | 1009.4 |
| 20260830232635 | 25 | 55 | 6.4 | 14.5 | 0.00 | 0.00 | 0.00 | 85 | 1009.5 |
| 20260830232130 | 25 | 115 | 9.7 | 11.3 | 0.00 | 0.00 | 0.00 | 85 | 1009.5 |
| 20260830231626 | 25 | 84 | 12.9 | 20.9 | 0.00 | 0.00 | 0.00 | 86 | 1009.4 |
| 20260830231120 | 25 | 110 | 9.7 | 14.5 | 0.00 | 0.00 | 0.00 | 85 | 1009.6 |
| 20260830230616 | 25 | 96 | 4.8 | 14.5 | 0.00 | 0.00 | 0.00 | 85 | 1009.5 |
| 20260830230115 | 25 | 93 | 11.3 | 14.5 | 0.00 | 0.00 | 0.00 | 85 | 1009.4 |
| 20260830225610 | 25 | 67 | 1.6 | 12.9 | 0.00 | 0.00 | 0.00 | 86 | 1009.4 |
| 20260830225105 | 25 | 88 | 6.4 | 12.9 | 0.00 | 0.00 | 0.00 | 86 | 1009.6 |
| 20260830224603 | 25 | 98 | 9.7 | 20.9 | 0.00 | 0.00 | 0.00 | 85 | 1009.5 |
| 20260830224100 | 25 | 102 | 6.4 | 16.1 | 0.00 | 0.00 | 0.00 | 85 | 1009.6 |
| 20260830223557 | 25 | 117 | 3.2 | 17.7 | 0.00 | 0.00 | 0.00 | 86 | 1009.7 |
| 20260830223057 | 25 | 83 | 11.3 | 16.1 | 0.00 | 0.00 | 0.00 | 86 | 1010.0 |
| 20260830222551 | 25 | 111 | 4.8 | 6.4 | 0.00 | 0.00 | 0.00 | 86 | 1010.2 |
| 20260830222048 | 25 | 53 | 3.2 | 4.8 | 0.00 | 0.00 | 0.00 | 86 | 1010.4 |
| 20260830221543 | 25 | 110 | 3.2 | 14.5 | 0.00 | 0.00 | 0.00 | 86 | 1010.1 |
| 20260830221039 | 25 | 173 | 4.8 | 9.7 | 0.00 | 0.00 | 0.00 | 86 | 1010.1 |